EST,Max TemperatureF,Mean TemperatureF,Min TemperatureF,Max Dew PointF,MeanDew PointF,Min DewpointF,Max Humidity, Mean Humidity, Min Humidity, Max Sea Level PressureIn, Mean Sea Level PressureIn, Min Sea Level PressureIn, Max VisibilityMiles, Mean VisibilityMiles, Min VisibilityMiles, Max Wind SpeedMPH, Mean Wind SpeedMPH, Max Gust SpeedMPH,PrecipitationIn, CloudCover, Events, WindDirDegrees
2012-12-1,53,44,35,37,33,27,70,63,54,30.31,30.25,30.21,10,10,10,14,6,16,0.00,5,,167
2012-12-2,51,48,46,52,45,37,100,85,66,30.21,30.10,30.01,10,6,1,15,10,23,0.47,7,,209
2012-12-3,55,53,51,54,52,48,100,94,88,30.22,30.17,30.14,10,4,0,13,6,16,0.01,8,,201
2012-12-4,60,51,42,54,49,39,94,86,68,30.15,30.07,29.96,10,10,6,20,11,29,0.55,5,,215
2012-12-5,41,34,28,37,27,19,93,76,60,30.33,30.23,30.09,10,10,4,13,7,21,0.17,6,,306
2012-12-6,41,31,21,23,20,18,93,65,45,30.34,30.19,30.02,10,10,10,12,5,17,0.00,1,,114
2012-12-7,44,40,35,45,37,23,100,88,60,30.03,29.96,29.89,10,4,0,10,5,,0.27,8,,186
2012-12-8,51,44,37,46,43,32,100,88,76,30.11,29.90,29.80,10,7,0,15,6,22,0.13,8,,262
2012-12-9,48,40,32,46,35,28,100,85,70,30.15,30.01,29.74,10,10,5,16,8,24,0.26,8,,100
2012-12-10,53,43,33,54,42,30,100,93,87,29.78,29.65,29.58,10,8,2,15,8,22,0.91,8,,269
2012-12-11,33,32,30,32,28,25,93,85,75,30.17,29.99,29.77,10,9,2,13,6,16,0.02,8,,260
2012-12-12,37,29,21,25,21,19,93,70,48,30.41,30.33,30.18,10,10,7,9,5,,0.00,1,,225
2012-12-13,42,30,17,25,19,16,93,70,39,30.41,30.35,30.24,10,9,1,13,2,,0.00,0,,174
2012-12-14,44,36,28,27,23,18,86,64,49,30.25,30.23,30.21,10,10,10,10,7,,0.00,0,,225
2012-12-15,44,34,24,28,25,21,93,67,46,30.21,30.09,29.89,10,10,8,13,5,21,0.00,3,,119
2012-12-16,50,46,42,48,39,28,100,76,57,29.88,29.78,29.70,10,10,0,14,10,22,0.46,8,,159
2012-12-17,48,45,42,46,44,39,100,91,87,29.76,29.68,29.53,10,6,0,13,5,16,0.03,8,,213
2012-12-18,42,36,30,41,33,27,93,88,75,29.79,29.65,29.49,10,7,0,16,5,22,0.14,7,,277
2012-12-19,37,32,28,36,32,27,100,91,87,30.15,29.96,29.75,10,4,0,8,2,,0.00,8,,255
2012-12-20,39,34,28,37,32,27,100,87,70,30.13,29.76,29.33,10,8,0,24,11,38,0.52,5,,128
2012-12-21,35,32,28,34,26,25,93,86,80,29.55,29.36,29.25,10,5,1,23,13,33,0.16,8,,248
2012-12-22,28,27,26,27,21,19,93,79,69,30.01,29.85,29.56,10,7,1,21,15,34,0.00,8,,278
2012-12-23,32,24,17,19,17,12,93,79,60,29.98,29.92,29.86,10,10,9,15,10,18,0.00,1,,226
2012-12-24,,,,,,,,,,,,,,,,,,,,,,
2012-12-25,,,,,,,,,,,,,,,,,,,,,,
2012-12-26,26,25,24,25,23,21,93,90,86,29.85,29.67,29.61,8,2,0,17,11,28,0.15,8,,48
2012-12-27,28,24,21,25,22,18,93,85,80,30.05,29.85,29.60,10,9,2,14,9,20,0.06,8,,313
2012-12-28,28,24,19,21,19,18,93,78,64,30.11,30.05,29.91,10,10,10,10,5,16,0.05,6,,314
2012-12-29,28,24,21,27,23,18,100,89,80,29.90,29.74,29.61,10,6,0,12,6,21,0.21,8,,356
2012-12-30,28,24,19,25,20,14,93,82,69,30.27,30.15,29.86,10,7,1,17,11,26,0.02,8,,268
2012-12-31,30,24,17,27,20,14,93,82,64,30.25,30.05,29.94,10,9,2,20,12,26,0.00,5,,230